LSZALOWS

Guest
Details From LSZA - Lugano
To LOWS - Salzburg Maxglan
Flight Number -
Tags generated
Created
Modified
Stats Distance 200 nm / 371 km
Max Altitude 21,100 ft / 6,431 m
Waypoints 3
Social Downloads 0
Likes 0
Share VATSIM

Download

Looking for another format? Having issues loading an existing format? Contact us
Advertisement - Login to hide

Notes

Basic altitude profile: - Ascent Rate: 1800ft/min - Ascent Speed: 250kts - Cruise Altitude: 26000ft - Cruise Speed: 290kts - Descent Rate: 1500ft/min - Descent Speed: 250kts Options: - Use NATs: no - Use PACOTS: no - Use low airways: yes - Use high airways: yes

Route

LSZA ENOGO LOWS

ID Type Via Altitude Latitude Longitude Leg Dist Tot Dist Heading (true) Name
O LSZA APT - 0 ft / 0 m 46.00428˚ 8.91058˚ - 0 nm - Lugano
ENOGO FIX - 21,100 ft / 6,431 m 46.81333˚ 11.06194˚ 101 nm 101 nm 61° / 62° -
O LOWS APT - 0 ft / 0 m 47.79333˚ 13.00433˚ 98 nm 200 nm 53° / 54° Salzburg Maxglan

Altitude Profile

Advertisement - Login to hide

Weather


0- 5 10 15 20 25 30 35+ Temperature / ° C

Clouds and Precipitation
Forecast for 2018-06-22 00:00 UTC. Updated 2 hours ago

Ground ~20,000 ft ~40,000 ft Winds

LSZA

Details ICAO LSZA (LUG)
Name Lugano
Region Switzerland
Timezone Europe/Zurich (UTC+2.0)
Stats Elevation 915 ft / 279 m (AMSL)
Location 46.004275° 8.910579°
Runways 1
Magnetic Variation 2.485° E

METAR

LSZA 212320Z AUTO VRB01KT 9999 // NCD 23/20 Q1013

Decode

TAF

Not found

Departure Runways

ID Width Length Bearing (true) Bearing (mag) Surface Threshold Offset Overrun Length
01 98 ft / 30 m 4,430 ft / 1,350 m 18.79° 16.31° Asphalt 361 ft / 110 m 0 ft / 0 m
19 98 ft / 30 m 4,430 ft / 1,350 m 198.79° 196.31° Asphalt 673 ft / 205 m 0 ft / 0 m

LOWS

Details ICAO LOWS (SZG)
Name Salzburg Maxglan
Region Austria
Timezone Europe/Vienna (UTC+2.0)
Stats Elevation 1,411 ft / 430 m (AMSL)
Location 47.793333° 13.004333°
Runways 1
Magnetic Variation 3.489° E

METAR

LOWS 212320Z AUTO 23006KT 9999 -SHRA FEW010 SCT024 BKN048 16/14 Q1019

Decode

TAF

TAF AMD LOWS 212053Z 2120/2218 31006KT 9999 -SHRA SCT030 BKN050 TX19/2120Z TN12/2205Z TEMPO 2120/2201 31017G27KT 6000 SHRA SCT030 BKN040 BECMG 2203/2205 NSW TEMPO 2209/2217 31012KT -SHRA BKN040 PROB30 TEMPO 2210/2215 31015G27KT 4000 SHRA FEW030TCU BKN040

Decode

Destination Runways

ID Width Length Bearing (true) Bearing (mag) Surface Threshold Offset Overrun Length
16 148 ft / 45 m 9,024 ft / 2,751 m 157.08° 153.59° Concrete 656 ft / 200 m 0 ft / 0 m
34 148 ft / 45 m 9,024 ft / 2,751 m 337.09° 333.60° Concrete 787 ft / 240 m 0 ft / 0 m

Approach Navaids

Runway Type Ident Frequency Range Bearing (true) Bearing (mag) Slope Elevation
16 Localiser OES 109.90 MHz 18 nm / 33 km 157.53° 154.04° - 1,411 ft / 430 m (AMSL)
16 Glidescope OES 109.90 MHz 10 nm / 19 km 157.09° 153.60° 3.00° 1,446 ft / 441 m (AMSL)
16 DME OES 109.90 MHz 18 nm / 33 km - - - 1,446 ft / 441 m (AMSL)

Popular Alternatives